GLOBALSTAR M026 [+]

Last updated on May 4, 2016, 7:38 a.m. UTC

1 25873U 99041B   16125.22214975 -.00000079  00000-0  13766-3 0  9998
2 25873  52.0034  21.7010 0003725  79.0644  97.8100 12.62255397773889
UTC
Height (km)
Latitude
Longitude
Inclination
Orbital Period
UTC large
Height (km)
Speed (km/s)
/
Latitude / Longitude
Inclination (degrees)
Orbital Period (minutes)
Azimuth
Elevation
Range (km)
Doppler Factor
iOS Compass Heading
iOS Angle